Weather in Coniston

United Kingdom     54°22′08″N   3°04′32″W
temp.,
°C
wind,
m/s
gust,
m/s
humid.,
%
clouds,
%
prec.,
mm/h
press.,
hPa
HPBL,
m
21 april, wed
wed2101:00+6nne488929 0.0 1021182
04:00+7ne598350 0.0 1022505
07:00+6ene5108261 0.0 1023575
10:00+7ene576846 0.0 1024770
13:00+11e455338 0.0 10241267
16:00+12e444835 0.0 10241475
19:00+10ese466322 0.0 1025325
22:00+4ne22755 0.0 102732
22 april, thu
thu2201:00+3ene117927 0.0 102724
04:00+2ne0081100 0.0 102823
07:00+2nne11805 0.0 102932
10:00+8sse116153 0.0 1029443
13:00+11s325534 0.0 1029873
16:00+12ssw325422 0.0 1028812
19:00+11ssw116611 0.0 102966
22:00+7nne2277100 0.0 102913
23 april, fri
fri2301:00+5ne118475 0.0 103015
04:00+5e008762 0.0 103017
07:00+5ne1184100 0.0 103021
10:00+11se11615 0.0 1030376
13:00+13s22526 0.0 1030842
16:00+15s124980 0.0 10291160
19:00+14sse006497 0.0 102811
22:00+9ne1175100 0.0 102912
24 april, sat
sat2401:00+7ne1185100 0.0 103010
04:00+6nne1182100 0.0 103014
07:00+7nne1178100 0.0 103018
10:00+12e1262100 0.0 1030399
13:00+14sse2359100 0.0 10301002
16:00+15ese3454100 0.0 10291184
19:00+13ese366820 0.0 1029346
22:00+8ene24872 0.0 103087
25 april, sun
sun2501:00+5ne22892 0.0 103124
04:00+4ene119043 0.0 103023
07:00+5ne11865 0.0 103045
10:00+10ese126570 0.0 1029497
13:00+13se23575 0.0 10281055
16:00+14sse335324 0.0 10261154
19:00+13se24675 0.0 1025206
22:00+7e01865 0.0 102513